Mount Holly, NJ

1:32 PM EDT on October 20, 2019 (GMT -0400)
South Jersey Regional

Weather History for KVAY - August, 2019

Change the Weather History Date:

Saturday, August 17, 2019

  Actual Average (WUND) Record (WUND)
Temperature  
Mean Temperature 80 °F -  
Max Temperature 89 °F - - (-1)
Min Temperature 73 °F - - (-1)
Cooling Degree Days 16    
Growing Degree Days 30 (Base 50)    
Moisture  
Dew Point 73 °F    
Average Humidity 85    
Maximum Humidity 97    
Minimum Humidity 57    
Precipitation  
Precipitation 0.00 in - - ()
Sea Level Pressure  
Sea Level Pressure 29.99 in    
Wind  
Wind Speed 1 mph (East)    
Max Wind Speed 5 mph    
Max Gust Speed -    
Visibility 6 miles    
Events Fog    
Averages and records for this station are not official NWS values.
T = Trace of Precipitation, MM = Missing Value Source: NWS Daily Summary

Daily Weather History Graph

Daily Weather History Graph

Search for Another Location

Airport or City:

Astronomy

Aug. 17, 2019 Rise Set
Actual Time 6:12 AM EDT 7:53 PM EDT
Civil Twilight 5:43 AM EDT 8:22 PM EDT
Nautical Twilight 5:09 AM EDT 8:57 PM EDT
Astronomical Twilight 4:31 AM EDT 9:34 PM EDT
Moon 9:20 PM EDT (8/17) 7:58 AM EDT (8/17)
Length of Visible Light 14h 38m
Length of Day
13h 40m
Waning Gibbous, 96% of the Moon is Illuminated
Aug 17
Waning Gibbous
Aug 23
Last Quarter
Aug 30
New
Sep 5
First Quarter
Sep 14
Full

Hourly Weather History & Observations

Time (EDT) Temp. Heat Index Dew Point Humidity Pressure Visibility Wind Dir Wind Speed Gust Speed Precip Events Conditions
12:14 AM 73.0 °F - 71.1 °F 93% 30.01 in 6.0 mi Calm Calm - N/A   Scattered Clouds
12:22 AM 73.0 °F - 71.1 °F 93% 30.02 in 5.0 mi Calm Calm - N/A   Mostly Cloudy
12:38 AM 73.0 °F - 71.1 °F 93% 30.01 in 1.8 mi East 3.5 mph - N/A   Overcast
12:46 AM 73.0 °F - 72.0 °F 96% 30.02 in 0.8 mi Calm Calm - N/A   Overcast
12:54 AM 73.0 °F - 72.0 °F 96% 30.02 in 0.8 mi Calm Calm - N/A   Mist
1:54 AM 73.0 °F - 72.0 °F 96% 30.01 in 1.0 mi Calm Calm - N/A   Mist
2:04 AM 73.0 °F - 72.0 °F 96% 30.01 in 1.5 mi Calm Calm - N/A   Overcast
2:34 AM 73.0 °F - 72.0 °F 96% 30.01 in 1.0 mi Calm Calm - N/A   Mist
2:54 AM 73.0 °F - 72.0 °F 96% 30.01 in 0.5 mi Calm Calm - N/A Fog Fog
3:32 AM 73.0 °F - 72.0 °F 96% 30.01 in 1.2 mi Calm Calm - N/A   Overcast
3:42 AM 73.0 °F - 72.0 °F 96% 30.01 in 2.5 mi Calm Calm - N/A   Overcast
3:54 AM 73.0 °F - 72.0 °F 96% 30.01 in 3.0 mi Calm Calm - N/A   Overcast
4:07 AM 73.0 °F - 72.0 °F 96% 30.00 in 1.8 mi Calm Calm - N/A   Overcast
4:54 AM 73.9 °F - 72.0 °F 93% 30.00 in 1.5 mi Calm Calm - N/A   Overcast
5:17 AM 73.9 °F - 72.0 °F 93% 29.99 in 2.5 mi Calm Calm - N/A   Overcast
5:29 AM 73.9 °F - 73.0 °F 97% 30.00 in 3.0 mi Calm Calm - N/A   Overcast
5:54 AM 73.9 °F - 73.0 °F 97% 30.01 in 4.0 mi Calm Calm - N/A   Overcast
6:24 AM 73.9 °F - 72.0 °F 93% 30.00 in 1.8 mi Calm Calm - N/A   Overcast
6:38 AM 73.9 °F - 72.0 °F 93% 30.00 in 0.8 mi ENE 3.5 mph - N/A   Overcast
6:54 AM 73.9 °F - 73.0 °F 97% 29.99 in 1.2 mi East 3.5 mph - N/A   Overcast
7:07 AM 73.9 °F - 73.0 °F 97% 30.00 in 3.0 mi ESE 3.5 mph - N/A   Overcast
7:54 AM 75.0 °F - 73.0 °F 94% 30.00 in 5.0 mi Calm Calm - N/A   Overcast
8:54 AM 79.0 °F - 73.9 °F 84% 30.00 in 10.0 mi Calm Calm - N/A   Mostly Cloudy
9:31 AM 80.1 °F 84.2 °F 73.0 °F 79% 30.01 in 10.0 mi East 4.6 mph - N/A   Scattered Clouds
9:54 AM 80.1 °F 84.2 °F 73.0 °F 79% 30.01 in 10.0 mi Variable 3.5 mph - N/A   Scattered Clouds
10:54 AM 81.0 °F 85.2 °F 72.0 °F 74% 30.02 in 10.0 mi SE 3.5 mph - N/A   Clear
11:46 AM 82.9 °F 88.0 °F 72.0 °F 69% 30.02 in 10.0 mi Calm Calm - N/A   Overcast
11:54 AM 82.9 °F 88.0 °F 72.0 °F 69% 30.01 in 10.0 mi Calm Calm - N/A   Overcast
12:46 PM 86.0 °F 93.0 °F 73.0 °F 65% 30.00 in 10.0 mi North 4.6 mph - N/A   Overcast
12:54 PM 86.0 °F 93.0 °F 73.0 °F 65% 30.00 in 10.0 mi East 3.5 mph - N/A   Mostly Cloudy
1:54 PM 86.0 °F 92.2 °F 72.0 °F 63% 29.99 in 10.0 mi ENE 3.5 mph - N/A   Mostly Cloudy
2:54 PM 87.1 °F 93.6 °F 72.0 °F 61% 29.98 in 10.0 mi Calm Calm - N/A   Scattered Clouds
3:54 PM 86.0 °F 95.1 °F 75.0 °F 70% 29.95 in 10.0 mi Calm Calm - N/A   Partly Cloudy
4:54 PM 88.0 °F 93.8 °F 71.1 °F 57% 29.94 in 10.0 mi Variable 4.6 mph - N/A   Clear
5:54 PM 84.0 °F 91.2 °F 73.9 °F 72% 29.95 in 10.0 mi SSE 4.6 mph - N/A   Mostly Cloudy
6:54 PM 82.9 °F 89.4 °F 73.9 °F 74% 29.94 in 10.0 mi Variable 3.5 mph - N/A   Partly Cloudy
7:54 PM 81.0 °F 86.2 °F 73.9 °F 79% 29.95 in 10.0 mi Calm Calm - N/A   Mostly Cloudy
8:18 PM 81.0 °F 86.2 °F 73.9 °F 79% 29.95 in 10.0 mi Variable 3.5 mph - N/A   Mostly Cloudy
8:34 PM 80.1 °F 84.5 °F 73.9 °F 81% 29.96 in 10.0 mi Calm Calm - N/A   Partly Cloudy
8:54 PM 79.0 °F - 73.9 °F 84% 29.96 in 10.0 mi Calm Calm - N/A   Clear
9:54 PM 78.1 °F - 73.9 °F 87% 29.98 in 10.0 mi Calm Calm - N/A   Clear
10:54 PM 75.9 °F - 73.9 °F 94% 29.98 in 10.0 mi Calm Calm - N/A   Clear
11:54 PM 75.9 °F - 73.0 °F 91% 29.97 in 9.0 mi Calm Calm - N/A   Clear